Weather History for North Las Vegas, NV

Change the Weather History Date:

Wednesday, March 6, 2013

  Actual Average Record
Temperature  
Mean Temperature 62 °F -  
Max Temperature 71 °F 65 °F 77 °F (1953)
Min Temperature 53 °F 46 °F 21 °F (1954)
Degree Days  
Heating Degree Days 3    
Growing Degree Days 12 (Base 50)    
Moisture  
Dew Point 27 °F    
Average Humidity 29    
Maximum Humidity 47    
Minimum Humidity 17    
Precipitation  
Precipitation 0.00 in - - ()
Sea Level Pressure  
Sea Level Pressure 29.88 in    
Wind  
Wind Speed 14 mph (SSW)    
Max Wind Speed 29 mph    
Max Gust Speed 34 mph    
Visibility 10 miles    
Events      
Averages and records for this station are not official NWS values.
T = Trace of Precipitation, MM = Missing Value Source: NWS Daily Summary

Daily Weather History Graph

Daily Weather History Graph

Search for Another Location

Airport:

Trip Planner

Search our weather history database for the weather conditions in past years. The results will help you decide how hot, cold, wet, or windy it might be!

Date:

Astronomy

Mar. 06, 2013 Rise Set
Actual Time 6:03 AM PST 5:40 PM PST
Civil Twilight 5:38 AM PST 6:06 PM PST
Nautical Twilight 5:08 AM PST 6:35 PM PST
Astronomical Twilight 4:38 AM PST 7:05 PM PST
Moon 2:09 AM PST (3/6) 12:34 PM PST (3/6)
Length of Visible Light 12h 28m
Length of Day
11h 36m
Waning Crescent, 29% of the Moon is Illuminated
Mar 6
Waning Crescent
Mar 11
New
Mar 19
First Quarter
Mar 27
Full
Apr 2
Last Quarter

Hourly Weather History & Observations

Time (PST) Temp. Dew Point Humidity Pressure Visibility Wind Dir Wind Speed Gust Speed Precip Events Conditions
12:53 AM 55.0 °F 28.9 °F 37% 29.91 in 10.0 mi SSE 6.9 mph - N/A   Clear
1:53 AM 54.0 °F 30.0 °F 40% 29.91 in 10.0 mi NW 4.6 mph - N/A   Clear
2:53 AM 59.0 °F 32.0 °F 36% 29.89 in 10.0 mi South 8.1 mph - N/A   Clear
3:53 AM 55.9 °F 32.0 °F 40% 29.91 in 10.0 mi ENE 3.5 mph - N/A   Clear
4:53 AM 55.0 °F 33.1 °F 43% 29.91 in 10.0 mi ESE 8.1 mph - N/A   Clear
5:53 AM 53.1 °F 33.1 °F 47% 29.93 in 10.0 mi SSE 13.8 mph - N/A   Clear
6:53 AM 57.0 °F 30.9 °F 37% 29.92 in 10.0 mi South 21.9 mph 26.5 mph N/A   Clear
7:53 AM 59.0 °F 30.0 °F 33% 29.93 in 10.0 mi South 19.6 mph - N/A   Clear
8:53 AM 61.0 °F 26.1 °F 26% 29.94 in 10.0 mi South 20.7 mph 28.8 mph N/A   Clear
9:53 AM 63.0 °F 25.0 °F 24% 29.93 in 10.0 mi South 28.8 mph 34.5 mph N/A   Clear
10:53 AM 66.9 °F 23.0 °F 19% 29.92 in 10.0 mi SSW 19.6 mph 32.2 mph N/A   Clear
11:53 AM 66.9 °F 24.1 °F 20% 29.88 in 10.0 mi SW 26.5 mph 33.4 mph N/A   Clear
12:53 PM 68.0 °F 24.1 °F 19% 29.86 in 10.0 mi WSW 21.9 mph 33.4 mph N/A   Clear
1:53 PM 69.8 °F 24.8 °F 18% 29.82 in 10.0 mi WSW 25.3 mph 34.5 mph N/A   Clear
2:53 PM 71.1 °F 24.1 °F 17% 29.84 in 10.0 mi WSW 19.6 mph 24.2 mph N/A   Clear
3:53 PM 68.0 °F 25.0 °F 20% 29.82 in 10.0 mi SSW 27.6 mph - N/A   Clear
4:53 PM 66.0 °F 25.0 °F 21% 29.83 in 10.0 mi SW 15.0 mph 32.2 mph N/A   Clear
5:53 PM 64.9 °F 23.0 °F 20% 29.83 in 10.0 mi SW 20.7 mph 28.8 mph N/A   Clear
6:53 PM 63.0 °F 26.1 °F 25% 29.85 in 10.0 mi SW 13.8 mph - N/A   Clear
7:53 PM 62.1 °F 25.0 °F 24% 29.84 in 10.0 mi WSW 13.8 mph - N/A   Clear
8:53 PM 60.1 °F 25.0 °F 26% 29.88 in 10.0 mi South 13.8 mph - N/A   Clear
9:53 PM 57.9 °F 28.0 °F 32% 29.88 in 10.0 mi SSW 8.1 mph - N/A   Clear
10:53 PM 55.9 °F 28.0 °F 34% 29.87 in 10.0 mi South 10.4 mph - N/A   Clear
11:53 PM 55.9 °F 28.9 °F 36% 29.87 in 10.0 mi SSW 23.0 mph 33.4 mph N/A   Clear